weather.gov     
National Weather Service

Terminal Aerodrome Forecast
NWS Homepage
This page is being discontinued on March 12, 2014.
The same data is available at this site. Please update your bookmarks.
Thank you, and we apologize for the inconvenience.
Please send an email to SR-SRH.Webmaster@noaa.gov with any concerns.


Current Version
Previous Version:    01  02  03  04  05  06  07  08  09  10  11  12  13  14  15  16  17  18  19  20  21  22  23  24  25  26  27  
[Printable]
927
FTUS44 KOUN 290520
TAFHBR
TAF
KHBR 290520Z 2906/3006 VRB04KT P6SM SCT100
     FM291200 15007KT P6SM OVC100
     FM291600 17012G18KT P6SM SCT050 BKN120 PROB30 2918/2924 4SM -RA
      OVC050=




927
FTUS44 KOUN 290520
TAFHBR
TAF
KHBR 290520Z 2906/3006 VRB04KT P6SM SCT100
     FM291200 15007KT P6SM OVC100
     FM291600 17012G18KT P6SM SCT050 BKN120 PROB30 2918/2924 4SM -RA
      OVC050=


U.S. Dept. of Commerce
NOAA National Weather Service
1325 East West Highway
Silver Spring, MD 20910
E-mail: w-nws.webmaster@noaa.gov
Page last modified: May 16, 2007
NATIONAL WEATHER SERVICE: for Safety, for Work, for Fun - FOR LIFE